Overview Statistics Trail Chart Weather Telemetry Raw packets
 

This is the latest recevied weather packets stored in our database for station/object KK7MLS-13. If no packets are shown the sender has not sent any weather packets the latest 10 day(s).

<< 86 87 88 89 90 91 92 >>
Time Temp. Humidity Pressure Rain* Wind** Luminosity Snow
1788043324 21.67° C 44% 1019.3 hPa 0 mm - 119 W/m² -
1788043019 21.67° C 46% 1019.4 hPa 0 mm - 119 W/m² -
1788042715 21.67° C 47% 1019.3 hPa 0 mm - 123 W/m² -
1788042414 21.67° C 47% 1019.3 hPa 0 mm - 143 W/m² -
1788042114 21.67° C 47% 1019.5 hPa 0 mm - 156 W/m² -
1788041809 22.22° C 45% 1019.5 hPa 0 mm - 101 W/m² -
1788041504 22.22° C 47% 1019.3 hPa 0 mm - 108 W/m² -
1788041199 23.33° C 45% 1019.4 hPa 0 mm - 128 W/m² -
1788040898 22.78° C 46% 1019.2 hPa 0 mm - 696 W/m² -
1788040605 22.78° C 47% 1019.4 hPa 0 mm - 766 W/m² -
1788040293 23.33° C 48% 1019.4 hPa 0 mm - 354 W/m² -
1788039992 22.78° C 45% 1019.3 hPa 0 mm - 212 W/m² -
1788039687 21.67° C 50% 1019.3 hPa 0 mm - 787 W/m² -
1788039382 21.67° C 54% 1019.3 hPa 0 mm - 156 W/m² -
1788039078 21.67° C 51% 1019.4 hPa 0 mm - 645 W/m² -
1788038774 22.22° C 49% 1019.4 hPa 0 mm - 150 W/m² -
1788038468 22.22° C 52% 1019.3 hPa 0 mm - 199 W/m² -
1788038168 22.22° C 50% 1019.3 hPa 0 mm - 701 W/m² -
1788037868 22.78° C 47% 1019.4 hPa 0 mm - 136 W/m² -
1788037563 23.89° C 44% 1019.4 hPa 0 mm - 153 W/m² -
1788037257 23.89° C 50% 1019.3 hPa 0 mm - 739 W/m² -
1788036956 23.33° C 47% 1019.5 hPa 0 mm - 745 W/m² -
1788036654 22.78° C 48% 1019.4 hPa 0 mm - 704 W/m² -
1788036349 22.78° C 53% 1019.5 hPa 0 mm - 689 W/m² -
1788036049 22.22° C 54% 1019.6 hPa 0 mm - 692 W/m² -

* Rain latest hour (hover to see other rain measurements)
** Current wind speed in m/s (hover to see current wind gust speed)